IZ0QWM-13 Scandriglia IT current weather conditions

sailwx.info

Wind from 152 at 2 knots gusting 6

Air temperature 11.1° C
Dewpoint 8.5° C

Last reported at 2016-Feb-09 08:50 UTC.
Time now 2016-Feb-09 10:03 UTC

Location: N 42°10' E 012°47'.
View on Google Maps.

See reports from other nearby stations

  
Tides and Currents Weather Stations Pressure Air Temp Water Temp Dewpoint Dewpoint Depression Visibility Wind Speed Wind Dir Waves Ship Positions
date/time (UTC)wind fromknots sea level pressurealtimeterstation pressurevisibilityair tempwater tempwave heightnotes
2016-Feb-09 08:50 152 2 gusting 6 11.1
2016-Feb-09 08:40 219 6 gusting 7 11.7
2016-Feb-09 08:30 212 3 gusting 5 11.1
2016-Feb-09 08:20 128 11.1
2016-Feb-09 08:10 128 11.7
2016-Feb-09 08:00 128 11.7
2016-Feb-09 07:50 128 11.7
2016-Feb-09 07:40 128 18.9
2016-Feb-09 07:30 128 17.2
2016-Feb-09 07:20 167 4 gusting 8 15.0
2016-Feb-09 07:10 158 2 gusting 7 11.1
2016-Feb-09 07:00 117 2 gusting 6 12.8
2016-Feb-09 06:50 158 6 gusting 6 17.8
2016-Feb-09 06:40 202 9 gusting 10 10.6
2016-Feb-09 06:30 191 5 gusting 5 10.6
2016-Feb-09 06:20 191 4 gusting 5 10.6
2016-Feb-09 06:10 172 3 gusting 6 10.6
2016-Feb-09 06:00 163 10.6
2016-Feb-09 05:50 160 1 gusting 6 10.6
2016-Feb-09 05:40 094 10.6
2016-Feb-09 05:30 094 10.6
2016-Feb-09 05:20 094 10.6
2016-Feb-09 05:10 094 10.6
2016-Feb-09 05:00 094 10.6
2016-Feb-09 04:50 089 10.6
2016-Feb-09 04:40 174 10.6
2016-Feb-09 04:30 264 6 gusting 6 10.6
2016-Feb-09 04:20 173 3 gusting 4 10.6
2016-Feb-09 04:10 174 10.6
2016-Feb-09 04:00 173 10.6
2016-Feb-09 03:50 143 10.0
2016-Feb-09 03:40 190 4 gusting 5 10.0
2016-Feb-09 03:30 170 3 gusting 5 10.0
2016-Feb-09 03:20 202 10.0
2016-Feb-09 03:10 195 1 gusting 3 10.0
2016-Feb-09 03:00 143 2 gusting 5 10.0
2016-Feb-09 02:50 105 10.0
2016-Feb-09 02:40 165 10.0
2016-Feb-09 02:30 294 3 gusting 4 10.0
2016-Feb-09 02:10 107 2 gusting 5 10.0
2016-Feb-09 02:00 121 10.0
2016-Feb-09 01:50 152 10.0
2016-Feb-09 01:40 084 10.0
2016-Feb-09 01:30 073 10.0
2016-Feb-09 01:20 150 10.0
2016-Feb-09 01:10 076 10.0
2016-Feb-09 01:00 194 10.0
2016-Feb-09 00:50 359 2 gusting 5 10.6
2016-Feb-09 00:40 086 10.0
2016-Feb-09 00:30 053 10.0
2016-Feb-09 00:20 183 10.6
2016-Feb-09 00:10 148 10.6
2016-Feb-09 00:00 174 3 gusting 6 10.6
2016-Feb-08 23:50 082 10.6
2016-Feb-08 23:40 205 3 gusting 5 10.6
2016-Feb-08 23:30 127 10.6
2016-Feb-08 23:20 172 6 gusting 11 10.6
2016-Feb-08 23:10 217 10.6
2016-Feb-08 23:00 195 1 gusting 6 10.6
2016-Feb-08 22:50 204 10.6
2016-Feb-08 22:40 212 10.6
2016-Feb-08 22:30 125 11.1
2016-Feb-08 22:20 174 3 gusting 5 11.7
2016-Feb-08 22:10 329 18.9
2016-Feb-08 22:00 345 2 gusting 3 18.3
2016-Feb-08 21:50 024 18.9
2016-Feb-08 21:40 024 20.0
2016-Feb-08 21:30 028 17.8
2016-Feb-08 21:20 086 16.1
2016-Feb-08 21:10 267 10.6
2016-Feb-08 21:00 335 10.6
2016-Feb-08 20:50 021 10.6
2016-Feb-08 20:40 197 11.1
2016-Feb-08 20:30 243 11.1
2016-Feb-08 20:20 243 13.3
2016-Feb-08 20:10 243 11.7
2016-Feb-08 20:00 110 20.0
2016-Feb-08 19:50 150 2 gusting 6 20.0
2016-Feb-08 19:40 138 19.4
2016-Feb-08 19:30 184 20.0
2016-Feb-08 19:20 166 18.9
2016-Feb-08 19:10 250 16.7
2016-Feb-08 19:00 250 11.1
2016-Feb-08 18:50 222 17.2
2016-Feb-08 18:40 219 11.1
2016-Feb-08 18:30 180 10.6
2016-Feb-08 18:20 207 10.6
2016-Feb-08 18:10 256 2 gusting 5 10.6
2016-Feb-08 18:00 018 11.1
2016-Feb-08 17:50 188 17.2
2016-Feb-08 17:40 021 10.6
2016-Feb-08 17:30 021 10.6
2016-Feb-08 17:20 173 15.6
2016-Feb-08 17:10 181 17.8
2016-Feb-08 17:00 222 2 gusting 6 10.6
2016-Feb-08 16:50 232 4 gusting 9 10.6
2016-Feb-08 16:40 160 6 gusting 9 10.6
2016-Feb-08 16:30 204 2 gusting 6 11.1
2016-Feb-08 16:20 224 2 gusting 6 12.2
2016-Feb-08 16:10 242 11.7
2016-Feb-08 16:00 082 11.7
2016-Feb-08 15:50 082 11.7
2016-Feb-08 15:40 082 13.3
2016-Feb-08 15:30 149 3 gusting 9 16.7
2016-Feb-08 15:20 169 2 gusting 5 11.7
2016-Feb-08 15:10 238 13.3
2016-Feb-08 15:00 231 3 gusting 5 11.7
2016-Feb-08 14:50 269 11.7
2016-Feb-08 14:40 139 3 gusting 8 11.7
2016-Feb-08 14:30 165 3 gusting 12 11.7
2016-Feb-08 14:20 167 12.2
2016-Feb-08 14:10 229 12.8
2016-Feb-08 14:00 359 20.6
2016-Feb-08 13:50 205 3 gusting 9 20.0
2016-Feb-08 13:40 198 18.3
2016-Feb-08 13:30 186 5 gusting 5 11.7
2016-Feb-08 13:20 149 1 gusting 8 11.7
2016-Feb-08 13:10 179 6 gusting 7 11.7
2016-Feb-08 13:00 200 2 gusting 8 11.7
2016-Feb-08 12:50 200 4 gusting 8 11.7
2016-Feb-08 12:40 249 4 gusting 14 11.7
2016-Feb-08 12:30 207 11.7
2016-Feb-08 12:20 176 11.7
2016-Feb-08 12:10 176 11.7
2016-Feb-08 12:00 176 14.4
2016-Feb-08 11:50 159 15.6
2016-Feb-08 11:40 159 15.0
2016-Feb-08 11:30 159 14.4
2016-Feb-08 11:20 159 11.1
2016-Feb-08 11:10 159 10.0
2016-Feb-08 11:00 083 10.6
2016-Feb-08 10:50 294 11.7
2016-Feb-08 10:40 146 14.4
2016-Feb-08 10:30 191 4 gusting 6 16.7
2016-Feb-08 10:20 281 10.6
2016-Feb-08 10:10 295 13.3
2016-Feb-08 10:00 301 15.6
2016-Feb-08 09:50 262 16.7
2016-Feb-08 09:40 075 3 gusting 3 12.8
2016-Feb-08 09:30 020 13.3
2016-Feb-08 09:20 020 13.3
2016-Feb-08 09:10 149 19.4
2016-Feb-08 09:00 079 1 gusting 3 20.6
2016-Feb-08 08:50 091 3 gusting 4 12.8
2016-Feb-08 08:40 087 12.8
2016-Feb-08 08:30 136 2 gusting 3 12.8
2016-Feb-08 08:20 086 12.8
2016-Feb-08 08:10 094 12.8
2016-Feb-08 08:00 174 12.8
2016-Feb-08 07:50 149 12.2
2016-Feb-08 07:40 104 12.2
2016-Feb-08 07:30 270 12.2
2016-Feb-08 07:20 267 14.4
2016-Feb-08 07:10 214 3 gusting 5 19.4
2016-Feb-08 07:00 007 19.4
2016-Feb-08 06:50 163 11.7
2016-Feb-08 06:40 163 11.7
2016-Feb-08 06:30 163 11.7
2016-Feb-08 06:20 235 11.7
2016-Feb-08 06:10 127 11.1
2016-Feb-08 06:00 127 11.1
2016-Feb-08 05:50 127 11.7
2016-Feb-08 05:40 127 11.1
2016-Feb-08 05:30 127 11.7
2016-Feb-08 05:20 127 11.7
2016-Feb-08 05:10 127 11.7
2016-Feb-08 05:00 127 11.7
2016-Feb-08 04:50 177 2 gusting 5 11.7
2016-Feb-08 04:40 111 11.7
2016-Feb-08 04:30 111 11.7
2016-Feb-08 04:20 259 11.7
2016-Feb-08 04:10 174 11.7
2016-Feb-08 04:00 152 11.7
2016-Feb-08 03:50 053 11.1
2016-Feb-08 03:40 007 3 gusting 4 11.1
2016-Feb-08 03:30 090 2 gusting 5 11.1
2016-Feb-08 03:20 117 11.1
2016-Feb-08 03:10 083 11.1
2016-Feb-08 03:00 083 11.7
2016-Feb-08 02:50 083 11.1
2016-Feb-08 02:40 053 3 gusting 3 11.1
2016-Feb-08 02:30 032 11.1
2016-Feb-08 02:20 020 11.1
2016-Feb-08 02:10 245 11.1
2016-Feb-08 02:00 245 2 gusting 4 11.1
2016-Feb-08 01:50 063 11.1
2016-Feb-08 01:40 063 11.1
2016-Feb-08 01:30 063 11.1
2016-Feb-08 01:10 063 11.7
2016-Feb-08 01:00 180 21.1
2016-Feb-08 00:50 028 20.6
2016-Feb-08 00:40 084 20.6
2016-Feb-08 00:30 080 20.0
2016-Feb-08 00:20 065 20.6
2016-Feb-08 00:10 001 20.0
2016-Feb-08 00:00 042 11.1
2016-Feb-07 23:50 082 12.2
2016-Feb-07 23:40 082 11.7
2016-Feb-07 23:30 014 3 gusting 4 12.2
2016-Feb-07 23:20 053 17.2
2016-Feb-07 23:10 094 3 gusting 3 17.8
2016-Feb-07 23:00 173 11.7
2016-Feb-07 22:50 239 18.9
2016-Feb-07 22:40 242 11.7
2016-Feb-07 22:30 128 11.7
2016-Feb-07 22:20 082 15.0
2016-Feb-07 22:10 069 12.8
2016-Feb-07 22:00 066 11.1
2016-Feb-07 21:50 082 10.6
2016-Feb-07 21:40 077 1 gusting 3 11.1
2016-Feb-07 21:30 069 3 gusting 3 11.1
2016-Feb-07 21:20 117 11.1
2016-Feb-07 21:10 101 11.7
2016-Feb-07 21:00 359 4 gusting 7 12.2
2016-Feb-07 20:50 145 18.9
2016-Feb-07 20:39 176 19.4
2016-Feb-07 20:29 022 17.8
2016-Feb-07 20:19 025 11.1
2016-Feb-07 20:09 028 2 gusting 2 11.1
2016-Feb-07 19:59 068 11.7
2016-Feb-07 19:49 239 2 gusting 4 11.7
2016-Feb-07 19:39 083 11.7
2016-Feb-07 19:29 101 11.7
2016-Feb-07 19:25 101 11.7
2016-Feb-07 19:09 038 15.0
2016-Feb-07 18:59 038 12.8
2016-Feb-07 18:51 068 14.4
2016-Feb-07 18:39 055 19.4
2016-Feb-07 18:29 179 17.8
2016-Feb-07 18:19 127 20.0
2016-Feb-07 18:09 165 3 gusting 11 20.0
2016-Feb-07 17:59 211 16.7
2016-Feb-07 17:49 068 2 gusting 2 15.6
2016-Feb-07 17:39 079 16.7
2016-Feb-07 17:29 084 19.4
2016-Feb-07 17:19 167 2 gusting 3 11.7
2016-Feb-07 17:09 195 11.7
2016-Feb-07 16:59 219 12.2
2016-Feb-07 16:49 204 5 gusting 7 15.6
2016-Feb-07 16:39 065 11.7
2016-Feb-07 16:29 096 1 gusting 6 11.7
2016-Feb-07 16:19 069 6 gusting 7 13.9
2016-Feb-07 16:09 060 17.2
2016-Feb-07 15:59 070 2 gusting 9 13.9
2016-Feb-07 15:49 098 15.6
2016-Feb-07 15:39 176 13 gusting 13 18.9
2016-Feb-07 15:29 190 20.0
2016-Feb-07 15:19 060 20.0
2016-Feb-07 15:09 087 17.2
2016-Feb-07 14:59 086 11.7
2016-Feb-07 14:49 202 11.1
2016-Feb-07 14:39 082 2 gusting 2 12.2
2016-Feb-07 14:29 105 11.1
2016-Feb-07 14:19 173 3 gusting 11 11.7
2016-Feb-07 14:09 096 11.1
2016-Feb-07 13:59 044 11.1
2016-Feb-07 13:49 056 11.7
2016-Feb-07 13:39 096 1 gusting 3 12.8
2016-Feb-07 13:29 098 3 gusting 6 17.8
2016-Feb-07 13:19 112 7 gusting 15 17.2
2016-Feb-07 13:09 132 1 gusting 12 18.9
2016-Feb-07 12:59 198 20.6
2016-Feb-07 12:49 153 18.9
2016-Feb-07 12:39 156 1 gusting 6 18.3
2016-Feb-07 12:29 198 11.7
2016-Feb-07 12:19 089 1 gusting 5 11.7
2016-Feb-07 12:09 167 11.7
2016-Feb-07 11:59 041 11.7
2016-Feb-07 11:49 176 11.7
2016-Feb-07 11:39 128 11.7
2016-Feb-07 11:29 160 11.7
2016-Feb-07 11:19 098 11.7
2016-Feb-07 11:10 097 1 gusting 4 12.2
2016-Feb-07 10:59 060 12.2
2016-Feb-07 10:49 021 12.2
2016-Feb-07 10:39 022 13.3
2016-Feb-07 10:29 059 17.2
2016-Feb-07 10:19 217 12.8
2016-Feb-07 10:09 146 2 gusting 3 12.2